Hanford, WA
on Wednesday, February 27, 2013

Wednesday
Previous Day Next Day
Daily Summary
 ActualAverage (KMWH)Record (KMWH)
Temperature
Mean Temperature °F 39°F  
Max Temperature 55°F 49°F 63°F (2005)
Min Temperature 25°F 28°F 14°F (2011)
Degree Days
Heating Degree Days 25 26  
Month to date heating degree days 805  
Since 1 July heating degree days 4479  
Moisture
Dew Point 27°F   
Average Humidity 63    
Maximum Humidity 89    
Minimum Humidity 36    
Precipitation
Precipitation 0.00 in 0.02 in 0.64 in (1999)
Month to date precipitation 0.77  
Year to date precipitation 1.91  
Wind
Wind Speed 5 mph   
Max Wind Speed 7 mph   
Max Gust Speed mph   
Visibility 15 miles   
Events     

Key: T is trace of precipitation, MM is missing value
Source: NWS Daily Summary
Time(PST)TemperatureDew PointHumidity Pressure Visibility Wind DirectionWind SpeedGust SpeedPrecipitationEvents Conditions
12:50 AM 29.8°F 23.9°F 79% 30.22 in 15.0 miles West 4.6 mph - N/A   Partly Cloudy
2:50 AM 28.4°F 23.2°F 81% 30.22 in 15.0 miles East 3.5 mph - N/A   Clear
3:50 AM 25.3°F 22.5°F 89% 30.20 in 15.0 miles NW 4.6 mph - N/A   Scattered Clouds
4:50 AM 28.8°F 23.5°F 81% 30.20 in 15.0 miles NE 4.6 mph - N/A   Mostly Cloudy
5:50 AM 26.1°F 22.3°F 86% 30.20 in 15.0 miles NE 4.6 mph - N/A   Overcast
6:50 AM 26.6°F 23.5°F 88% 30.22 in 15.0 miles NW 4.6 mph - N/A   Overcast
7:50 AM 29.5°F 24.8°F 83% 30.25 in 15.0 miles NNW 4.6 mph - N/A   Overcast
8:50 AM 34.3°F 26.4°F 73% 30.27 in 15.0 miles WSW 3.5 mph - N/A   Overcast
9:50 AM 37.4°F 26.4°F 65% 30.30 in 15.0 miles ESE 3.5 mph - N/A   Mostly Cloudy
10:50 AM 42.4°F 26.4°F 53% 30.30 in 15.0 miles SSE 4.6 mph - N/A   Mostly Cloudy
11:50 AM 48.0°F 27.0°F 44% 30.30 in 15.0 miles ESE 4.6 mph - N/A   Mostly Cloudy
12:50 PM 51.6°F 27.9°F 40% 30.29 in 15.0 miles East 6.9 mph - N/A   Mostly Cloudy
1:50 PM 53.1°F 28.2°F 38% 30.28 in 15.0 miles East 6.9 mph - N/A   Scattered Clouds
2:50 PM 55.4°F 28.8°F 36% 30.26 in 15.0 miles ENE 4.6 mph - N/A   Scattered Clouds
3:50 PM 53.1°F 28.6°F 39% 30.25 in 15.0 miles NNW 4.6 mph - N/A   Mostly Cloudy
4:50 PM 51.4°F 29.8°F 44% 30.24 in 15.0 miles ESE 3.5 mph - N/A   Mostly Cloudy
5:50 PM 46.9°F 28.8°F 49% 30.24 in 15.0 miles East 4.6 mph - N/A   Mostly Cloudy
6:50 PM 46.4°F 30.0°F 53% 30.23 in 15.0 miles ESE 5.8 mph - N/A   Overcast
10:50 PM 44.1°F 34.0°F 68% 30.23 in 15.0 miles SW 4.6 mph - 0.00 in   Overcast
11:50 PM 44.1°F 34.0°F 68% 30.23 in 15.0 miles South 4.6 mph - N/A   Overcast
Moon Phase
Feb. 27 Mar. 04 Mar. 11 Mar. 19 Mar. 27
Sunrise:06:40 AM (PST) Moon Rise:08:21 PM (PST)2/27
Sunset:05:41 PM (PST) Moon Set:07:08 AM (PST)2/27

Copyright © 2014 The Weather Underground, Inc.